TimePDT,TemperatureF,Dew PointF,Humidity,Sea Level PressureIn,VisibilityMPH,Wind Direction,Wind SpeedMPH,Gust SpeedMPH,PrecipitationIn,Events,Conditions,WindDirDegrees,DateUTC
12:53 AM,50.0,42.1,74,29.81,10.0,SE,10.4,-,0.00,Rain,Light Rain,140,2013-04-07 07:53:00
1:53 AM,48.0,43.0,83,29.76,10.0,East,3.5,-,0.00,Rain,Light Rain,90,2013-04-07 08:53:00
2:53 AM,48.0,44.1,86,29.72,9.0,Calm,Calm,-,0.02,Rain,Rain,0,2013-04-07 09:53:00
3:53 AM,46.9,45.0,93,29.68,10.0,ESE,5.8,-,0.07,Rain,Light Rain,110,2013-04-07 10:53:00
4:53 AM,46.9,44.1,90,29.63,10.0,East,11.5,-,0.04,Rain,Light Rain,90,2013-04-07 11:53:00
5:53 AM,46.9,45.0,93,29.60,10.0,East,8.1,-,0.01,,Overcast,90,2013-04-07 12:53:00
6:53 AM,46.0,44.1,93,29.58,10.0,WNW,5.8,-,N/A,,Clear,290,2013-04-07 13:53:00
7:53 AM,50.0,46.0,86,29.57,10.0,South,4.6,-,N/A,,Overcast,170,2013-04-07 14:53:00
8:53 AM,55.0,43.0,64,29.57,10.0,SSW,17.3,20.7,N/A,,Overcast,200,2013-04-07 15:53:00
9:53 AM,55.9,41.0,57,29.60,10.0,SW,29.9,40.3,N/A,,Clear,220,2013-04-07 16:53:00
10:53 AM,59.0,39.0,48,29.62,10.0,SW,24.2,36.8,N/A,,Clear,230,2013-04-07 17:53:00
11:53 AM,59.0,37.0,44,29.65,10.0,SW,29.9,44.9,N/A,,Clear,230,2013-04-07 18:53:00
12:53 PM,61.0,37.0,41,29.63,10.0,SW,32.2,46.0,N/A,,Partly Cloudy,230,2013-04-07 19:53:00
1:53 PM,59.0,35.1,41,29.66,10.0,SW,28.8,40.3,N/A,,Widespread Dust,230,2013-04-07 20:53:00
2:53 PM,62.1,34.0,35,29.66,10.0,SW,27.6,35.7,N/A,,Widespread Dust,220,2013-04-07 21:53:00
3:53 PM,59.0,33.1,38,29.67,10.0,WSW,32.2,43.7,N/A,,Widespread Dust,240,2013-04-07 22:53:00
4:53 PM,57.0,36.0,45,29.68,10.0,SW,21.9,39.1,N/A,,Widespread Dust,230,2013-04-07 23:53:00
5:53 PM,54.0,35.1,49,29.70,10.0,WSW,29.9,39.1,N/A,,Clear,240,2013-04-08 00:53:00
6:53 PM,51.1,36.0,56,29.72,10.0,SW,19.6,27.6,N/A,,Scattered Clouds,230,2013-04-08 01:53:00
7:53 PM,48.9,36.0,61,29.73,10.0,SW,18.4,-,N/A,,Scattered Clouds,230,2013-04-08 02:53:00
8:53 PM,48.0,35.1,61,29.76,10.0,SW,16.1,-,N/A,,Mostly Cloudy,230,2013-04-08 03:53:00
9:53 PM,46.0,35.1,66,29.78,10.0,SW,10.4,-,N/A,,Partly Cloudy,230,2013-04-08 04:53:00
10:53 PM,44.1,35.1,71,29.78,10.0,SSW,8.1,-,N/A,,Partly Cloudy,210,2013-04-08 05:53:00
11:53 PM,43.0,34.0,71,29.80,10.0,SW,11.5,-,N/A,,Clear,220,2013-04-08 06:53:00